Location: Alladorf
(49.9620°N, 11.3790°E)
Time: 20:16:14
(UTC+00:00)

FENGYUN 3A - Pass Details

Date: 29 November 2020
Orbit: 823 x 837 km, 98.4° (Epoch: 25 January)

Event Time Altitude Azimuth Distance (km) Brightness Sun altitude
Rises 04:50:25 0° 9° (N) 3,395 6.8 -18.3°
Reaches altitude 10° 04:52:55 10° 2° (N) 2,455 6.0 -17.9°
Maximum altitude 04:57:53 38° 296° (WNW) 1,249 4.1 -17.1°
Drops below altitude 10° 05:02:49 10° 229° (SW) 2,432 5.8 -16.3°
Sets 05:05:18 0° 222° (SW) 3,359 6.6 -16.0°
